SCP
0 0 0 0 0 0 0 0 0 0 0 0 0 0 0 0 0 0 0 0 0 0 0 0 0 0 0 0 0 0 0 0 0 0 0 0 0 0 0 0 0 0 0
0 0 0 0 0 0 0 0 0 0 0 0 0 0 0 0 0 0 0 0 0 0 0 0 0 0 0 0 0 0 0 0 0 0 0 0 0 0 0 0 0 0 0
0 0 0 0 0 0 0 0 0 0 0 0 0 0 0 0 0 0 0 0 0 0 0 0 0 0 0 0 0 0 0 0 0 0 0 0 0 0 0 0 0 0 0
0 0 0 0 0 0 0 0 0 0 0 0 0 0 0 0 0 0 0 0 0 0 0 0 0 0 0 0 0 0 0 0 0 0 0 0 0 0 0 0 0 0 0
0 0 0 0 0 0 0 0 0 0 0 0 0 0 0 0 0 0 0 0 0 0 0 0 0 0 0 0 0 0 0 0 0 0 0 0 0 0 0 0 0 0 0
0 0 0 0 0 0 0 0 0 0 0 0 0 0 0 0 0 0 0 0 0 0 0 0 0 0 0 0 0 0 0 0 0 0 0 0 0 0 0 0 0 0 0
0 0 0 0 0 0 0 0 0 0 0 0 0 0 0 0 0 0 0 0 0 0 0 0 0 0 0 0 0 0 0 0 0 0 0 0 0 0 0 0 0 0 0
0 0 0 0 0 0 0 0 0 0 0 0 0 0 0 0 0 0 0 0 0 0 0 0 0 0 0 0 0 0 0 0 0 0 0 0 0 0 0 0 0 0 0
0 0 0 0 0 0 0 0 0 0 0 0 0 0 0 0 0 0 0 0 0 0 0 0 0 0 0 0 0 0 0 0 0 0 0 0 0 0 0 0 0 0 0
0 0 0 0 0 0 0 0 0 0 0 0 0 0 0 0 0 0 0 0 0 0 0 0 0 0 0 0 0 0 0 0 0 0 0 0 0 0 0 0 0 0 0
0 0 0 0 0 0 0 0 0 0 0 0 0 0 0 0 0 0 0 0 0 0 0 0 0 0 0 0 0 0 0 0 0 0 0 0 0 0 0 0 0 0 0
0 0 0 0 0 0 0 0 0 0 0 0 0 0 0 0 0 0 0 0 0 0 0 0 0 0 0 0 0 0 0 0 0 0 0 0 0 0 0 0 0 0 0
0 0 0 0 0 0 0 0 0 0 0 0 0 0 0 0 0 0 0 0 0 0 0 0 0 0 0 0 0 0 0 0 0 0 0 0 0 0 0 0 0 0 0
0 0 0 0 0 0 0 0 0 0 0 0 0 0 0 0 0 0 0 0 0 0 0 0 0 0 0 0 0 0 0 0 0 0 0 0 0 0 0 0 0 0 0
0 0 0 0 0 0 0 0 0 0 0 0 0 0 0 0 0 0 0 0 0 0 0 0 0 0 0 0 0 0 0 0 0 0 0 0 0 0 0 0 0 0 0
0 0 0 0 0 0 0 0 0 0 0 0 0 0 0 0 0 0 0 0 0 0 0 0 0 0 0 0 0 0 0 0 0 0 0 0 0 0 0 0 0 0 0
0 0 0 0 0 0 0 0 0 0 0 0 0 0 0 0 0 0 0 0 0 0 0 0 0 0 0 0 0 0 0 0 0 0 0 0 0 0 0 0 0 0 0
0 0 0 0 0 0 0 0 0 0 0 0 0 0 0 0 0 0 0 0 0 0 0 0 0 0 0 0 0 0 0 0 0 0 0 0 0 0 0 0 0 0 0
0 0 0 0 0 0 0 0 0 0 0 0 0 0 0 0 0 0 0 0 0 0 0 0 0 0 0 0 0 0 0 0 0 0 0 0 0 0 0 0 0 0 0
0 0 0 0 0 0 0 0 0 0 0 0 0 0 0 0 0 0 0 0 0 0 0 0 0 0 0 0 0 0 0 0 0 0 0 0 0 0 0 0 0 0 0
0 0 0 0 0 0 0 0 0 0 0 0 0 0 0 0 0 0 0 0 0 0 0 0 0 0 0 0 0 0 0 0 0 0 0 0 0 0 0 0 0 0 0
0 0 0 0 0 0 0 0 0 0 0 0 0 0 0 0 0 0 0 0 0 0 0 0 0 0 0 0 0 0 0 0 0 0 0 0 0 0 0 0 0 0 0
0 0 0 0 0 0 0 0 0 0 0 0 0 0 0 0 0 0 0 0 0 0 0 0 0 0 0 0 0 0 0 0 0 0 0 0 0 0 0 0 0 0 0
0 0 0 0 0 0 0 0 0 0 0 0 0 0 0 0 0 0 0 0 0 0 0 0 0 0 0 0 0 0 0 0 0 0 0 0 0 0 0 0 0 0 0
0 0 0 0 0 0 0 0 0 0 0 0 0 0 0 0 0 0 0 0 0 0 0 0 0 0 0 0 0 0 0 0 0 0 0 0 0 0 0 0 0 0 0
0 0 0 0 0 0 0 0 0 0 0 0 0 0 0 0 0 0 0 0 0 0 0 0 0 0 0 0 0 0 0 0 0 0 0 0 0 0 0 0 0 0 0
Wind_Speed
11 13 18 16 15 14 12 11 11 10 9 9 9 8 7 7 6 6 5 5 5 9 12 13 14 13 13 13 13 11 11 11 10 10 10 12 11 10 10 8 5 10 12
12 15 17 16 16 15 12 11 11 10 9 9 10 9 8 8 9 8 7 6 8 11 13 13 12 11 11 11 11 10 9 9 9 9 7 7 11 9 10 10 10 9 11
11 15 17 14 16 15 13 11 10 9 9 10 10 10 9 9 9 9 9 9 11 12 12 12 11 9 8 8 8 8 8 7 7 6 4 4 7 9 8 9 10 10 10
11 13 15 13 14 15 14 13 12 10 9 9 10 10 11 10 9 8 7 7 9 11 11 12 10 8 7 8 8 9 8 8 7 3 2 4 4 7 6 7 8 9 9
11 12 12 11 13 14 14 15 14 13 11 11 12 13 12 10 9 7 4 4 7 9 10 9 8 7 8 9 9 9 8 8 6 4 5 4 4 6 6 6 6 7 7
12 11 11 11 13 13 12 15 15 14 13 13 14 13 10 8 8 5 3 3 7 8 8 8 8 9 9 9 9 9 9 7 3 5 5 4 4 7 10 12 8 7 7
12 11 12 11 11 11 11 13 14 13 14 15 14 11 9 8 7 6 6 6 7 8 8 9 9 9 9 9 9 8 8 6 5 5 5 5 7 8 9 10 11 10 11
12 12 12 11 10 10 10 11 11 11 12 12 12 9 8 8 8 8 8 9 9 9 9 9 9 8 8 8 8 8 8 4 5 5 5 6 9 7 7 8 7 8 8
11 12 12 14 13 11 10 10 10 10 11 11 11 10 9 9 10 9 9 9 10 10 10 9 9 9 8 8 8 8 8 6 5 5 5 5 8 6 6 6 6 7 7
10 12 13 13 14 14 14 12 11 11 11 11 11 12 10 9 9 8 8 10 11 11 10 9 9 9 9 8 8 8 6 3 6 5 4 6 8 6 6 6 6 6 6
12 13 14 14 14 13 14 13 13 12 12 12 11 13 12 10 10 9 10 9 11 11 11 10 9 8 8 8 7 6 3 4 5 4 4 6 6 5 5 4 4 4 5
17 17 15 16 15 14 11 10 11 12 12 13 11 13 11 9 7 8 7 7 10 10 10 10 9 8 4 3 4 2 3 4 3 3 4 6 5 3 2 2 2 3 5
16 16 16 16 16 15 11 10 8 8 9 12 14 14 11 9 7 7 6 7 9 9 8 8 7 4 4 3 2 3 3 2 2 2 3 6 5 2 1 2 3 4 5
15 16 17 17 16 16 14 11 11 9 9 10 12 15 12 8 9 8 7 8 7 6 6 6 4 5 5 4 3 3 3 1 1 1 2 5 5 2 2 4 4 5 6
16 16 17 18 18 16 15 12 12 12 12 12 12 14 14 11 11 10 8 8 8 7 7 6 6 6 5 5 3 3 2 3 2 1 2 4 5 3 2 4 5 6 6
17 17 17 20 20 19 16 14 13 13 12 13 12 15 16 12 11 11 11 10 9 7 6 6 7 6 5 4 4 3 2 2 3 2 2 3 6 6 4 5 5 6 7
17 17 18 20 21 22 21 19 14 13 13 13 13 16 17 14 14 12 11 10 9 8 8 6 7 5 5 4 4 3 3 3 3 4 4 3 5 9 10 7 6 7 8
16 16 18 15 20 22 20 19 14 13 14 12 12 13 17 17 15 13 10 10 9 8 8 7 7 6 5 5 4 3 4 4 5 5 5 4 4 4 7 9 9 9 9
16 15 16 18 20 20 19 16 15 13 13 12 12 12 15 17 17 13 11 10 11 9 8 7 7 6 6 5 4 4 4 4 4 5 6 5 5 4 4 7 10 10 8
14 12 12 14 17 15 13 12 12 14 13 12 13 13 16 15 17 14 11 13 13 10 9 9 9 6 6 6 6 5 4 3 3 4 5 4 4 5 4 3 4 6 8
14 11 10 10 12 12 11 12 12 13 12 12 12 14 17 16 17 15 11 12 12 12 12 13 9 10 6 7 6 5 4 4 5 4 4 4 5 5 4 3 3 3 4
17 15 10 8 8 11 10 10 9 10 10 11 9 12 15 16 17 15 16 13 14 12 14 14 12 8 6 8 5 5 5 5 5 4 4 4 4 4 4 4 4 4 4
20 19 13 10 6 8 9 6 4 5 4 7 10 10 12 15 16 16 17 15 15 14 14 16 15 15 9 9 6 6 6 7 6 6 6 4 4 3 3 4 5 5 5
20 18 18 14 8 4 6 7 9 8 8 8 7 8 11 14 15 15 16 16 16 14 15 15 15 12 12 10 7 5 4 3 6 7 6 6 5 4 5 4 5 5 6
21 20 19 17 13 7 4 7 8 9 7 5 5 8 10 11 14 15 15 15 15 14 15 16 16 15 11 11 9 6 5 3 3 5 6 7 6 5 5 5 5 6 6
22 21 20 19 18 13 8 6 7 9 9 8 7 7 8 8 10 15 15 15 15 14 16 16 16 19 15 14 10 8 7 7 6 5 5 5 6 5 5 5 6 6 5
Wind_Direction
183 176 163 181 176 178 176 166 157 150 145 139 137 137 135 135 123 107 100 106 121 111 96 86 81 76 72 71 71 66 59 51 43 40 45 47 57 83 76 55 44 71 61
166 172 163 176 177 179 178 174 163 154 153 153 150 142 135 128 111 94 78 104 120 108 97 89 80 74 70 68 66 61 55 53 46 34 22 61 56 68 81 70 55 62 63
167 171 170 177 177 178 178 174 168 167 167 165 161 154 145 127 111 92 74 90 102 100 94 85 76 72 72 73 70 62 53 49 49 32 359 59 64 51 84 82 76 70 66
176 176 179 174 179 180 180 176 176 182 187 181 170 153 137 123 108 90 72 78 98 99 92 86 86 86 84 74 63 54 46 39 37 356 45 54 57 41 62 91 84 77 72
182 182 181 175 183 183 184 180 180 187 197 190 159 140 131 119 105 89 65 67 98 96 91 93 98 101 93 80 69 59 52 41 21 17 44 48 57 37 55 73 103 92 77
178 185 180 181 189 190 189 185 186 191 193 176 153 144 133 122 112 115 141 125 108 106 110 116 117 110 97 87 77 68 60 45 16 48 48 46 56 62 61 57 72 103 87
175 186 184 178 182 186 195 196 197 197 190 169 156 146 141 143 143 164 175 150 134 130 133 132 122 112 104 97 88 79 68 53 53 62 58 55 46 57 59 57 58 70 72
181 186 189 178 182 183 190 194 193 190 178 169 155 149 164 168 171 182 180 163 153 149 142 132 124 116 111 105 95 85 74 55 80 67 61 57 30 49 58 50 52 59 65
189 192 195 192 191 191 191 188 182 176 172 170 161 163 172 171 180 184 179 172 164 153 144 138 129 122 115 104 94 82 71 46 61 60 52 43 14 37 49 42 43 52 57
200 203 201 203 201 199 198 197 193 186 180 177 171 162 158 162 178 179 180 178 168 156 148 139 132 124 113 102 96 90 84 66 59 58 45 31 9 27 43 41 38 43 50
211 209 206 206 208 207 204 200 201 193 186 178 173 155 159 182 186 183 186 178 167 155 151 143 132 116 104 92 79 75 66 52 57 47 42 14 4 18 38 46 49 53 62
212 209 207 206 206 206 205 203 207 205 198 196 192 180 182 184 182 181 169 177 155 149 153 146 132 127 132 118 97 79 61 56 48 44 37 0 347 352 40 69 79 81 78
218 209 209 207 204 202 199 202 202 202 200 199 193 184 179 176 174 182 172 161 158 158 157 146 151 159 155 140 132 109 95 81 57 48 37 349 328 318 142 127 112 100 94
228 217 209 207 206 205 201 197 197 197 195 192 188 183 179 178 181 182 181 175 170 166 159 164 167 157 145 130 117 113 108 87 77 76 55 337 319 294 164 122 111 108 107
238 226 214 206 207 205 205 202 200 198 196 194 188 189 186 183 183 182 183 180 177 171 173 172 166 157 150 139 126 120 91 65 69 76 93 7 343 346 105 116 114 109 106
239 230 216 209 206 204 203 205 203 202 198 196 191 191 190 188 185 183 183 182 178 178 177 173 164 161 156 143 129 108 85 87 84 89 99 81 36 18 53 84 100 117 120
240 233 220 212 206 206 206 206 205 203 199 198 196 194 192 191 187 184 183 182 178 173 168 164 161 161 151 142 138 143 139 130 120 118 119 106 77 48 47 53 62 82 84
252 237 225 212 209 209 209 209 206 204 202 202 198 194 195 193 188 184 181 181 173 171 172 169 165 158 159 164 161 155 144 134 117 115 112 105 91 77 64 52 55 65 66
263 246 229 216 213 212 211 211 208 206 206 206 202 198 196 193 189 185 182 175 171 173 177 171 170 164 164 158 143 130 126 131 124 117 109 97 87 85 87 75 62 57 60
294 271 242 223 219 214 212 215 212 210 208 209 207 204 196 193 190 187 182 174 172 172 175 175 168 162 152 140 124 110 109 136 156 133 121 103 94 89 89 98 85 70 61
338 322 285 246 221 206 203 209 212 213 211 212 211 207 202 194 189 189 183 178 179 179 179 176 165 160 152 152 137 129 131 148 165 148 126 108 103 93 92 91 91 99 87
4 355 334 283 240 215 211 210 215 218 219 217 214 215 210 201 193 192 186 183 185 183 181 181 174 168 156 182 169 154 167 177 184 176 152 120 112 113 105 98 102 104 109
12 6 359 339 285 234 223 220 217 222 238 217 215 215 216 213 205 201 193 186 187 187 187 188 185 176 172 185 208 194 180 181 160 174 183 167 147 138 130 125 121 114 115
17 17 17 11 354 295 237 223 219 221 230 230 224 218 215 220 220 214 205 196 191 192 192 190 191 190 181 179 191 230 250 173 165 160 176 187 182 162 149 149 145 134 135
26 26 23 23 19 359 287 252 244 246 255 266 250 232 217 213 222 222 217 208 199 198 195 189 189 193 196 190 182 176 185 192 205 161 162 171 181 175 164 162 157 151 145
29 31 30 30 26 13 348 303 272 269 271 267 254 241 222 211 214 220 220 216 208 204 199 194 193 196 200 201 195 184 174 176 187 177 153 158 170 162 168 168 168 156 151